CW9676 Weather Reports


time (UTC)temp
C
wind
direction
speed
KPH
gust
KPH
rain 1hr
cm
rain 24hr
cm
rain mn
cm
humidity
%
barometer
mb
20260831010053 26 269 14.5 32.2 0.00 0.00 0.00 39 1003.3
20260831005053 27 273 4.8 19.3 0.00 0.00 0.00 37 1003.3
20260831004110 28 84 4.8 17.7 0.00 0.00 0.00 36 1003.2
20260831003048 28 73 9.7 25.7 0.00 0.00 0.00 37 1003.0
20260831002046 28 55 11.3 25.7 0.00 0.00 0.00 36 1002.8
20260831001044 28 78 12.9 20.9 0.00 0.00 0.00 34 1002.7
20260830234927 30 77 16.1 27.4 0.00 0.00 0.00 32 1002.4
20260830233950 30 57 12.9 29.0 0.00 0.00 0.00 32 1002.4
20260830232946 30 66 14.5 29.0 0.00 0.00 0.00 29 1002.4
20260830231915 31 92 14.5 29.0 0.00 0.00 0.00 26 1002.4
20260830230935 32 65 14.5 27.4 0.00 0.00 0.00 25 1002.5
20260830225953 32 73 12.9 29.0 0.00 0.00 0.00 26 1002.4
20260830225004 31 88 14.5 29.0 0.00 0.00 0.00 28 1002.5
20260830224002 31 87 6.4 25.7 0.00 0.00 0.00 27 1002.4
20260830222927 31 73 9.7 19.3 0.00 0.00 0.00 27 1002.7
20260830221918 32 75 11.3 20.9 0.00 0.00 0.00 29 1002.7
20260830220902 31 156 11.3 29.0 0.00 0.00 0.00 30 1002.8
20260830215832 31 105 14.5 29.0 0.00 0.00 0.00 29 1003.0
20260830214840 31 148 12.9 20.9 0.00 0.00 0.00 31 1003.0
20260830213900 31 44 8.0 25.7 0.00 0.00 0.00 30 1003.3
20260830212903 31 119 12.9 25.7 0.00 0.00 0.00 31 1003.5
20260830211925 31 125 9.7 22.5 0.00 0.00 0.00 31 1003.6
20260830210859 31 68 9.7 24.1 0.00 0.00 0.00 31 1003.8
20260830205909 30 77 12.9 24.1 0.00 0.00 0.00 32 1003.9
20260830204932 31 109 9.7 22.5 0.00 0.00 0.00 32 1004.0
20260830203906 30 126 9.7 22.5 0.00 0.00 0.00 32 1004.3
20260830202832 30 79 8.0 20.9 0.00 0.00 0.00 32 1004.6
20260830200636 30 130 11.3 20.9 0.00 0.00 0.00 31 1005.0
20260830195617 30 90 12.9 24.1 0.00 0.00 0.00 30 1005.0
20260830194630 30 75 9.7 32.2 0.00 0.00 0.00 31 1005.0
20260830193630 30 74 12.9 32.2 0.00 0.00 0.00 32 1005.2
20260830191441 29 94 9.7 22.5 0.00 0.00 0.00 33 1005.4
20260830190435 28 95 14.5 22.5 0.00 0.00 0.00 34 1005.4
20260830185406 28 83 9.7 22.5 0.00 0.00 0.00 34 1005.5
20260830183230 29 129 11.3 22.5 0.00 0.00 0.00 33 1005.9
20260830182241 28 100 9.7 27.4 0.00 0.00 0.00 34 1006.0
20260830181247 28 73 12.9 27.4 0.00 0.00 0.00 36 1006.2
20260830175100 27 58 11.3 24.1 0.00 0.00 0.00 38 1006.3
20260830174059 27 132 12.9 22.5 0.00 0.00 0.00 39 1006.5
20260830173042 27 118 12.9 29.0 0.00 0.00 0.00 37 1006.6
20260830172045 26 108 16.1 29.0 0.00 0.00 0.00 41 1006.6
20260830171104 26 98 16.1 25.7 0.00 0.00 0.00 39 1006.5
20260830170035 26 67 14.5 24.1 0.00 0.00 0.00 40 1006.6
20260830165021 26 72 14.5 25.7 0.00 0.00 0.00 42 1006.6
20260830164009 26 119 12.9 25.7 0.00 0.00 0.00 40 1006.4
20260830163005 26 116 11.3 22.5 0.00 0.00 0.00 42 1006.4
20260830161958 26 72 12.9 22.5 0.00 0.00 0.00 45 1006.5
20260830160929 26 110 11.3 22.5 0.00 0.00 0.00 41 1006.3
20260830155929 26 135 11.3 22.5 0.00 0.00 0.00 40 1006.2
20260830153830 26 136 9.7 17.7 0.00 0.00 0.00 44 1006.1
20260830152847 26 137 8.0 17.7 0.00 0.00 0.00 43 1006.1
20260830151902 26 97 6.4 17.7 0.00 0.00 0.00 38 1006.1
20260830150839 26 83 6.4 14.5 0.00 0.00 0.00 39 1006.1
20260830145835 25 123 4.8 12.9 0.00 0.00 0.00 40 1006.1
20260830143651 23 121 3.2 14.5 0.00 0.00 0.00 51 1006.2
20260830142649 22 91 4.8 14.5 0.00 0.00 0.00 60 1006.1
20260830141615 21 159 1.6 4.8 0.00 0.00 0.00 60 1006.1
20260830140634 20 134 1.6 6.4 0.00 0.00 0.00 67 1006.2
20260830135652 18 109 3.2 9.7 0.00 0.00 0.00 73 1006.1
20260830134636 18 99 4.8 9.7 0.00 0.00 0.00 74 1006.1
20260830133611 18 97 3.2 8.0 0.00 0.00 0.00 73 1006.1
20260830132633 18 79 3.2 6.4 0.00 0.00 0.00 71 1006.0
20260830131609 17 90 3.2 8.0 0.00 0.00 0.00 74 1005.9
20260830130541 19 95 3.2 9.7 0.00 0.00 0.00 64 1005.7
20260830125605 20 123 6.4 9.7 0.00 0.00 0.00 57 1005.4
20260830124539 18 142 4.8 9.7 0.00 0.00 0.00 63 1005.3
20260830123525 17 114 3.2 8.0 0.00 0.00 0.00 71 1005.1
20260830122522 17 134 3.2 9.7 0.00 0.00 0.00 75 1005.0
20260830121459 17 113 4.8 9.7 0.00 0.00 0.00 75 1005.0
20260830120502 17 71 4.8 9.7 0.00 0.00 0.00 76 1005.0
20260830115503 17 119 6.4 16.1 0.00 0.00 0.00 70 1005.0
20260830114445 17 105 4.8 16.1 0.00 0.00 0.00 75 1004.9
20260830113456 18 103 4.8 12.9 0.00 0.00 0.00 68 1004.8
20260830112446 18 121 3.2 16.1 0.00 0.00 0.00 70 1004.9
20260830111429 20 29 6.4 17.7 0.00 0.00 0.00 62 1004.9
20260830110359 20 91 4.8 17.7 0.00 0.00 0.00 58 1004.8
20260830105333 20 117 6.4 17.7 0.00 0.00 0.00 57 1005.0
20260830104324 20 98 4.8 12.9 0.00 0.00 0.00 60 1005.1
20260830102151 20 88 3.2 8.0 0.00 0.00 0.00 61 1005.1
20260830101152 20 61 3.2 16.1 0.00 0.00 0.00 61 1005.0
20260830100120 20 106 4.8 16.1 0.00 0.00 0.00 60 1004.9
20260830095122 20 71 6.4 12.9 0.00 0.00 0.00 60 1005.0
20260830094116 20 82 8.0 14.5 0.00 0.00 0.00 60 1005.1
20260830093139 20 96 6.4 19.3 0.00 0.00 0.00 61 1005.1
20260830084857 21 149 16.1 32.2 0.00 0.00 0.00 56 1005.1
20260830083842 21 118 17.7 32.2 0.00 0.00 0.00 55 1005.1
20260830082837 22 128 11.3 27.4 0.00 0.00 0.00 54 1005.2
20260830081840 22 107 12.9 27.4 0.00 0.00 0.00 53 1005.2
20260830075733 22 118 16.1 27.4 0.00 0.00 0.00 50 1005.0
20260830074740 22 90 9.7 22.5 0.00 0.00 0.00 50 1005.0
20260830073734 22 147 9.7 20.9 0.00 0.00 0.00 52 1005.1
20260830072758 22 94 9.7 20.9 0.00 0.00 0.00 52 1005.1
20260830071733 23 94 8.0 19.3 0.00 0.00 0.00 49 1005.0
20260830070722 23 55 6.4 19.3 0.00 0.00 0.00 48 1005.0
20260830065738 23 105 6.4 12.9 0.00 0.00 0.00 47 1004.7
20260830064707 23 92 8.0 14.5 0.00 0.00 0.00 46 1004.6
20260830062520 23 102 4.8 9.7 0.00 0.00 0.00 45 1004.3
20260830061535 23 86 8.0 19.3 0.00 0.00 0.00 43 1004.4
20260830060519 24 61 8.0 19.3 0.00 0.00 0.00 43 1004.5
20260830055531 24 57 4.8 12.9 0.00 0.00 0.00 40 1004.5
20260830054538 25 72 4.8 11.3 0.00 0.00 0.00 37 1004.5
20260830052421 25 78 1.6 6.4 0.00 0.00 0.00 34 1004.4
20260830051411 25 89 1.6 9.7 0.00 0.00 0.00 34 1004.4
20260830050429 26 96 3.2 9.7 0.00 0.00 0.00 33 1004.5
20260830045433 26 76 3.2 8.0 0.00 0.00 0.00 33 1004.6
20260830044414 26 125 3.2 6.4 0.00 0.00 0.00 32 1004.5
20260830043404 26 138 3.2 9.7 0.00 0.00 0.00 31 1004.4
20260830042340 26 127 4.8 9.7 0.00 0.00 0.00 31 1004.5
20260830041328 26 130 3.2 8.0 0.00 0.00 0.00 32 1004.4
20260830040321 26 123 3.2 16.1 0.00 0.00 0.00 32 1004.4
20260830035341 27 127 8.0 16.1 0.00 0.00 0.00 31 1004.4
20260830033242 27 100 4.8 16.1 0.00 0.00 0.00 31 1004.2
20260830032207 27 107 8.0 16.1 0.00 0.00 0.00 32 1003.9
20260830031132 26 91 6.4 22.5 0.00 0.00 0.00 34 1003.7
20260830030133 27 92 11.3 22.5 0.00 0.00 0.00 33 1003.6
20260830025114 27 69 11.3 20.9 0.00 0.00 0.00 30 1003.5
20260830022916 27 46 0.0 3.2 0.00 0.00 0.00 28 1003.3
20260830021850 27 348 0.0 3.2 0.00 0.00 0.00 28 1003.1
20260830020847 28 4 0.0 1.6 0.00 0.00 0.00 28 1003.0
20260830015847 28 346 0.0 1.6 0.00 0.00 0.00 28 1002.9
20260830014824 28 359 0.0 1.6 0.00 0.00 0.00 27 1002.9
20260830013811 28 346 0.0 4.8 0.00 0.00 0.00 26 1002.9
20260830012754 29 14 0.0 3.2 0.00 0.00 0.00 25 1002.9